Overview Statistics Trail Chart Weather Telemetry Raw packets
 

This is the latest recevied weather packets stored in our database for station/object K6POO-1. If no packets are shown the sender has not sent any weather packets the latest 10 day(s).

<< 96 97 98 99 100 101 102 >>
Time Temp. Humidity Pressure Rain* Wind** Luminosity Snow
1787971963 17.22° C 73% 1014.6 hPa 0 mm - 2 W/m² -
1787971658 17.22° C 72% 1014.4 hPa 0 mm - 3 W/m² -
1787971355 17.22° C 72% 1014.7 hPa 0 mm - 6 W/m² -
1787971051 17.22° C 72% 1014.8 hPa 0 mm - 9 W/m² -
1787970749 17.22° C 71% 1014.7 hPa 0 mm - 12 W/m² -
1787970449 17.78° C 71% 1014.9 hPa 0 mm - 16 W/m² -
1787970148 17.78° C 71% 1014.5 hPa 0 mm - 20 W/m² -
1787969847 17.78° C 71% 1014.5 hPa 0 mm - 24 W/m² -
1787969541 17.78° C 70% 1014.6 hPa 0 mm - 28 W/m² -
1787969241 17.78° C 70% 1014.8 hPa 0 mm - 31 W/m² -
1787968940 18.33° C 70% 1014.7 hPa 0 mm - 33 W/m² -
1787968641 18.33° C 69% 1014.8 hPa 0 mm - 35 W/m² -
1787968335 18.33° C 68% 1014.9 hPa 0 mm - 37 W/m² -
1787968031 18.89° C 67% 1015 hPa 0 mm - 39 W/m² -
1787967729 20.56° C 66% 1014.7 hPa 0 mm - 43 W/m² -
1787967427 20° C 67% 1015.1 hPa 0 mm - 48 W/m² -
1787967122 20° C 68% 1015 hPa 0 mm - 50 W/m² -
1787966818 20.56° C 67% 1015.1 hPa 0 mm - 56 W/m² -
1787966514 20.56° C 68% 1014.7 hPa 0 mm - 66 W/m² -
1787966208 20.56° C 67% 1015.1 hPa 0 mm - 75 W/m² -
1787965908 21.11° C 66% 1015 hPa 0 mm - 89 W/m² -
1787965603 20.56° C 67% 1015.1 hPa 0 mm - 102 W/m² -
1787965298 20.56° C 68% 1015.1 hPa 0 mm - 115 W/m² -
1787964997 21.11° C 66% 1015.1 hPa 0 mm - 129 W/m² -
1787964691 20.56° C 67% 1015 hPa 0 mm - 149 W/m² -

* Rain latest hour (hover to see other rain measurements)
** Current wind speed in m/s (hover to see current wind gust speed)